Location: Le Domaine
(47.0333°N, 76.5361°W)
Time: 02:26:13
(UTC-05:00)

S-56A Canister/Altair - Pass Details

Date: 20 November 2019
Orbit: 633 x 2499 km, 38.9° (Epoch: 06 December)

Event Time Altitude Azimuth Distance (km) Brightness Sun altitude
Rises 15:40:07 0° 218° (SW) 5,667 13.9 5.8°
Reaches altitude 10° 15:44:49 10° 209° (SSW) 4,387 12.8 5.2°
Maximum altitude 15:53:52 29° 157° (SSE) 2,549 10.4 3.9°
Drops below altitude 10° 16:00:30 10° 101° (E) 3,159 10.3 3.0°
Sets 16:03:17 0° 89° (E) 3,881 10.6 2.6°
